W2DRT Weather Reports


time (UTC)temp
C
wind
direction
speed
KPH
gust
KPH
rain 1hr
cm
rain 24hr
cm
rain mn
cm
humidity
%
barometer
mb
20260510202022 25 0.0 0.0 0.00 0.00 0.00 49 1012.9
20260510201021 25 0.0 0.0 0.00 0.00 0.00 48 1012.9
20260510200021 25 0.0 0.0 0.00 0.00 0.00 48 1012.9
20260510195020 26 0.0 0.0 0.00 0.00 0.00 48 1012.9
20260510194018 26 0.0 0.0 0.00 0.00 0.00 50 1012.9
20260510193014 26 0.0 0.0 0.00 0.00 0.00 50 1013.3
20260510192011 26 0.0 0.0 0.00 0.00 0.00 52 1013.3
20260510191010 25 0.0 0.0 0.00 0.00 0.00 52 1013.6
20260510190010 25 0.0 0.0 0.00 0.00 0.00 52 1013.6
20260510185010 25 0.0 0.0 0.00 0.00 0.00 50 1013.6
20260510184008 26 0.0 0.0 0.00 0.00 0.00 50 1013.6
20260510183005 26 0.0 0.0 0.00 0.00 0.00 51 1013.6
20260510182002 26 0.0 0.0 0.00 0.00 0.00 52 1013.6
20260510181002 26 0.0 0.0 0.00 0.00 0.00 54 1013.6
20260510180003 26 0.0 0.0 0.00 0.00 0.00 57 1013.6
20260510175000 25 0.0 0.0 0.00 0.00 0.00 59 1013.6
20260510174001 25 0.0 0.0 0.00 0.00 0.00 60 1013.3
20260510172959 24 0.0 0.0 0.00 0.00 0.00 61 1013.6
20260510171958 23 0.0 0.0 0.00 0.00 0.00 63 1013.6
20260510170957 23 0.0 0.0 0.00 0.00 0.00 64 1014.0
20260510165954 22 0.0 0.0 0.00 0.00 0.00 65 1014.0
20260510164953 22 0.0 0.0 0.00 0.00 0.00 66 1014.0
20260510163952 21 0.0 0.0 0.00 0.00 0.00 67 1014.0
20260510162949 21 0.0 0.0 0.00 0.00 0.00 69 1014.0
20260510161948 20 0.0 0.0 0.00 0.00 0.00 70 1014.0
20260510160947 20 0.0 0.0 0.00 0.00 0.00 70 1014.0
20260510155942 19 0.0 0.0 0.00 0.00 0.00 71 1014.0
20260510154942 19 0.0 0.0 0.00 0.00 0.00 73 1014.0
20260510153937 18 0.0 0.0 0.00 0.00 0.00 74 1014.6
20260510152937 17 0.0 0.0 0.00 0.00 0.00 74 1014.3
20260510151937 17 0.0 0.0 0.00 0.00 0.00 75 1014.3
20260510150936 17 0.0 0.0 0.00 0.00 0.00 77 1014.6
20260510145933 16 0.0 0.0 0.00 0.00 0.00 77 1014.3
20260510144932 16 0.0 0.0 0.00 0.00 0.00 78 1014.3
20260510143931 16 0.0 0.0 0.00 0.00 0.00 78 1014.6
20260510142930 16 0.0 0.0 0.00 0.00 0.00 78 1014.6
20260510141929 15 0.0 0.0 0.00 0.00 0.00 80 1014.3
20260510140923 15 0.0 0.0 0.00 0.00 0.00 82 1014.6
20260510135918 15 0.0 0.0 0.00 0.00 0.00 83 1014.6
20260510134918 14 0.0 0.0 0.00 0.00 0.00 84 1014.3
20260510133916 13 0.0 0.0 0.00 0.00 0.00 85 1014.6
20260510132914 13 0.0 0.0 0.00 0.00 0.00 87 1014.6
20260510131909 13 0.0 0.0 0.00 0.00 0.00 88 1014.3
20260510130908 13 0.0 0.0 0.00 0.00 0.00 89 1014.6
20260510125908 12 0.0 0.0 0.00 0.00 0.00 89 1014.0
20260510124907 12 0.0 0.0 0.00 0.00 0.00 90 1014.3
20260510123906 12 0.0 0.0 0.00 0.00 0.00 90 1014.0
20260510122904 11 0.0 0.0 0.00 0.00 0.00 90 1014.0
20260510121901 11 0.0 0.0 0.00 0.00 0.00 92 1014.0
20260510120856 11 0.0 0.0 0.00 0.00 0.00 92 1014.0
20260510115854 11 0.0 0.0 0.00 0.00 0.00 92 1013.6
20260510114853 11 0.0 0.0 0.00 0.00 0.00 93 1013.6
20260510113851 11 0.0 0.0 0.00 0.00 0.00 93 1013.6
20260510112850 10 0.0 0.0 0.00 0.00 0.00 92 1013.6
20260510111848 10 0.0 0.0 0.00 0.00 0.00 92 1013.3
20260510110846 10 0.0 0.0 0.00 0.00 0.00 92 1013.3
20260510105845 10 0.0 0.0 0.00 0.00 0.00 92 1013.3
20260510104841 10 0.0 0.0 0.00 0.00 0.00 93 1013.3
20260510103840 10 0.0 0.0 0.00 0.00 0.00 93 1012.6
20260510102838 10 0.0 0.0 0.00 0.00 0.00 93 1012.6
20260510101838 9 0.0 0.0 0.00 0.00 0.00 94 1012.9
20260510100838 9 0.0 0.0 0.00 0.00 0.00 94 1012.9
20260510095838 9 0.0 0.0 0.00 0.00 0.00 94 1012.9
20260510094832 9 0.0 0.0 0.00 0.00 0.00 94 1012.9
20260510093830 8 0.0 0.0 0.00 0.00 0.00 94 1012.9
20260510092828 8 0.0 0.0 0.00 0.00 0.00 94 1012.6
20260510091826 8 0.0 0.0 0.00 0.00 0.00 93 1012.6
20260510090825 8 0.0 0.0 0.00 0.00 0.00 93 1012.6
20260510085824 8 0.0 0.0 0.00 0.00 0.00 92 1012.6
20260510084820 8 0.0 0.0 0.00 0.00 0.00 92 1012.3
20260510083820 8 0.0 0.0 0.00 0.00 0.00 92 1012.3
20260510082818 8 0.0 0.0 0.00 0.00 0.00 92 1012.3
20260510081814 8 0.0 0.0 0.00 0.00 0.00 92 1012.3
20260510080812 8 0.0 0.0 0.00 0.00 0.00 92 1011.9
20260510075810 8 0.0 0.0 0.00 0.00 0.00 92 1012.3
20260510074810 8 0.0 0.0 0.00 0.00 0.00 92 1011.9
20260510073809 8 0.0 0.0 0.00 0.00 0.00 91 1011.9
20260510072807 8 0.0 0.0 0.00 0.00 0.00 91 1011.9
20260510071806 8 0.0 0.0 0.00 0.00 0.00 90 1011.6
20260510070802 8 0.0 0.0 0.00 0.00 0.00 90 1011.6
20260510065758 8 0.0 0.0 0.00 0.00 0.00 90 1011.2
20260510064758 8 0.0 0.0 0.00 0.00 0.00 90 1011.2
20260510063757 8 0.0 0.0 0.00 0.00 0.00 90 1011.2
20260510062756 8 0.0 0.0 0.00 0.00 0.00 90 1011.6
20260510061753 8 0.0 0.0 0.00 0.00 0.00 90 1011.6
20260510060752 8 0.0 0.0 0.00 0.00 0.00 90 1011.6
20260510055752 9 0.0 0.0 0.00 0.00 0.00 90 1011.6
20260510054749 9 0.0 0.0 0.00 0.00 0.00 90 1011.9
20260510053745 9 0.0 0.0 0.00 0.00 0.00 90 1011.9
20260510052743 9 0.0 0.0 0.00 0.00 0.00 90 1011.9
20260510051742 9 0.0 0.0 0.00 0.00 0.00 90 1011.9
20260510050741 9 0.0 0.0 0.00 0.00 0.00 88 1011.9
20260510045741 10 0.0 0.0 0.00 0.00 0.00 88 1011.9
20260510044740 10 0.0 0.0 0.00 0.00 0.00 88 1012.3
20260510043739 10 0.0 0.0 0.00 0.00 0.00 88 1012.3
20260510042734 10 0.0 0.0 0.00 0.00 0.00 88 1012.3
20260510041732 10 0.0 0.0 0.00 0.00 0.00 88 1012.3
20260510040733 10 0.0 0.0 0.00 0.00 0.00 88 1012.3
20260510035730 10 0.0 0.0 0.00 0.00 0.00 88 1012.3
20260510034728 10 0.0 0.0 0.00 0.00 0.00 88 1011.9
20260510033728 10 0.0 0.0 0.00 0.00 0.00 88 1011.9
20260510032728 10 0.0 0.0 0.00 0.00 0.00 88 1011.9
20260510031725 10 0.0 0.0 0.00 0.00 0.00 88 1011.6
20260510030721 10 0.0 0.0 0.00 0.00 0.00 88 1011.9
20260510025716 11 0.0 0.0 0.00 0.00 0.00 88 1011.6
20260510024716 11 0.0 0.0 0.00 0.00 0.00 88 1011.9
20260510023714 11 0.0 0.0 0.00 0.00 0.00 87 1011.9
20260510022713 11 0.0 0.0 0.00 0.00 0.00 87 1011.6
20260510021709 11 0.0 0.0 0.00 0.00 0.00 87 1011.9
20260510020707 11 0.0 0.0 0.00 0.00 0.00 87 1011.2
20260510015704 11 0.0 0.0 0.00 0.00 0.00 86 1011.6
20260510014701 11 0.0 0.0 0.00 0.00 0.00 86 1011.6
20260510013659 11 0.0 0.0 0.00 0.00 0.00 85 1011.9
20260510012655 11 0.0 0.0 0.00 0.00 0.00 84 1011.9
20260510011652 11 0.0 0.0 0.00 0.00 0.00 84 1011.2
20260510010650 12 0.0 0.0 0.00 0.00 0.00 84 1011.6
20260510005649 12 0.0 0.0 0.00 0.00 0.00 83 1011.2
20260510004644 12 0.0 0.0 0.00 0.00 0.00 83 1010.9
20260510003639 12 0.0 0.0 0.00 0.00 0.00 82 1011.2
20260510002635 12 0.0 0.0 0.00 0.00 0.00 81 1011.2
20260510001634 12 0.0 0.0 0.00 0.00 0.00 80 1011.2
20260510000633 13 0.0 0.0 0.00 0.00 0.00 80 1011.2
20260509235632 13 0.0 0.0 0.00 0.00 0.00 80 1011.2
20260509234631 13 0.0 0.0 0.00 0.00 0.00 78 1010.9
20260509233626 14 0.0 0.0 0.00 0.00 0.00 78 1011.2
20260509232625 14 0.0 0.0 0.00 0.00 0.00 77 1010.9
20260509231625 15 0.0 0.0 0.00 0.00 0.00 77 1010.6
20260509230625 15 0.0 0.0 0.00 0.00 0.00 78 1010.9
20260509225623 14 0.0 0.0 0.00 0.00 0.00 77 1010.9
20260509224620 14 0.0 0.0 0.00 0.00 0.00 77 1010.9
20260509223620 14 0.0 0.0 0.00 0.00 0.00 77 1010.9
20260509222620 14 0.0 0.0 0.00 0.00 0.00 76 1011.2
20260509221618 15 0.0 0.0 0.00 0.00 0.00 74 1011.2
20260509220616 15 0.0 0.0 0.00 0.00 0.00 74 1011.2
20260509215614 15 0.0 0.0 0.00 0.00 0.00 73 1011.6
20260509214614 15 0.0 0.0 0.00 0.00 0.00 71 1011.6
20260509213613 15 0.0 0.0 0.00 0.00 0.00 68 1011.9
20260509212613 15 0.0 0.0 0.00 0.00 0.00 67 1011.9
20260509211611 16 0.0 0.0 0.00 0.00 0.00 66 1011.6
20260509210610 16 0.0 0.0 0.00 0.00 0.00 65 1011.6
20260509205608 16 0.0 0.0 0.00 0.00 0.00 65 1011.2
20260509204605 16 0.0 0.0 0.00 0.00 0.00 66 1011.2
20260509203604 16 0.0 0.0 0.00 0.00 0.00 67 1011.2
20260509202602 16 0.0 0.0 0.00 0.00 0.00 66 1011.2